This is the latest recevied weather packets stored in our database for station/object W4DEX-2. If no packets are shown the sender has not sent any weather packets the latest 10 day(s).
| Time | Temp. | Humidity | Pressure | Rain* | Wind** | Luminosity | Snow |
|---|---|---|---|---|---|---|---|
| 1777902302 | 16.11° C | 53% | 1016.8 hPa | 0 mm | 4.02 m/s, 178° | - | - |
| 1777902003 | 15.56° C | 54% | 1017 hPa | 0 mm | 3.58 m/s, 179° | - | - |
| 1777901403 | 15° C | 58% | 1016.9 hPa | 0 mm | 4.47 m/s, 178° | - | - |
| 1777901103 | 14.44° C | 60% | 1016.6 hPa | 0 mm | 3.58 m/s, 177° | - | - |
| 1777900502 | 13.89° C | 62% | 1016.6 hPa | 0 mm | 4.92 m/s, 180° | - | - |
| 1777900202 | 13.33° C | 62% | 1016.6 hPa | 0 mm | 4.47 m/s, 180° | - | - |
| 1777899902 | 13.33° C | 64% | 1016.4 hPa | 0 mm | 2.68 m/s, 176° | - | - |
| 1777899302 | 12.78° C | 66% | 1016 hPa | 0 mm | 2.68 m/s, 173° | - | - |
| 1777899002 | 12.22° C | 68% | 1016.1 hPa | 0 mm | 3.13 m/s, 180° | - | - |
| 1777898702 | 12.22° C | 68% | 1016.1 hPa | 0 mm | 5.36 m/s, 181° | - | - |
| 1777898103 | 11.67° C | 69% | 1016.1 hPa | 0 mm | 4.92 m/s, 176° | - | - |
| 1777897502 | 11.11° C | 73% | 1016.2 hPa | 0 mm | 4.92 m/s, 176° | - | - |
| 1777897202 | 10.56° C | 73% | 1016.3 hPa | 0 mm | 5.36 m/s, 181° | - | - |
| 1777896903 | 10.56° C | 74% | 1016.1 hPa | 0 mm | 4.92 m/s, 175° | - | - |
| 1777895702 | 9.44° C | 76% | 1016.3 hPa | 0 mm | 5.36 m/s, 175° | - | - |
| 1777895402 | 9.44° C | 76% | 1016.3 hPa | 0 mm | 4.92 m/s, 177° | - | - |
| 1777895105 | 9.44° C | 77% | 1016.3 hPa | 0 mm | 4.47 m/s, 177° | - | - |
| 1777894502 | 8.89° C | 77% | 1016.4 hPa | 0 mm | 4.92 m/s, 174° | - | - |
| 1777894202 | 8.89° C | 77% | 1016.4 hPa | 0 mm | 4.02 m/s, 170° | - | - |
| 1777893903 | 8.89° C | 78% | 1016.3 hPa | 0 mm | 4.92 m/s, 186° | - | - |
| 1777893602 | 8.89° C | 78% | 1016.3 hPa | 0 mm | 4.47 m/s, 177° | - | - |
| 1777893302 | 8.33° C | 79% | 1016.1 hPa | 0 mm | 4.92 m/s, 179° | - | - |
| 1777893003 | 8.33° C | 79% | 1016.2 hPa | 0 mm | 4.47 m/s, 180° | - | - |
| 1777892402 | 8.33° C | 79% | 1016 hPa | 0 mm | 4.47 m/s, 180° | - | - |
| 1777892102 | 8.33° C | 79% | 1015.9 hPa | 0 mm | 5.81 m/s, 175° | - | - |
* Rain latest hour (hover to see other rain measurements)
** Current wind speed in m/s (hover to see current wind gust speed)